Location: Unspecified
(41.5000°N, 0.0000°E)
Time: 09:49:41
(UTC+00:00)

Courier 1B Rocket - Pass Details

Date: 04 July 2019
Orbit: 920 x 1202 km, 28.2° (Epoch: 23 July)

Event Time Altitude Azimuth Distance (km) Brightness Sun altitude
Rises 22:03:41 0° 216° (SW) 4,047 8.0 -19.8°
Enters shadow 22:05:26 - 209° (SSW) 3,587 7.6 -20.0°
Reaches altitude 10° 22:07:31 10° 198° (SSW) 3,110 - -20.2°
Maximum altitude 22:12:26 18° 159° (SSE) 2,559 - -20.6°
Drops below altitude 10° 22:17:22 10° 119° (ESE) 3,123 - -21.0°
Sets 22:21:13 0° 102° (ESE) 4,069 - -21.4°
